Location: UMBC
(39.2555°N, 76.7093°W)
Time: 02:01:13
(UTC+02:00)

Amateur Radio Satellites - All Passes

Search period start: 21 September 2014 01:31
Search period end: 22 September 2014 01:31
Location: UMBC, 39.2555°N, 76.7093°W

Satellite Date Start Highest point End Downlink Frequencies (MHz)
Time Altitude Azimuth
STRAND 1 21 Sep 01:46:08 01:51:13 59° 101° (E) 01:56:17 ?
Sapphire 21 Sep 01:58:23 02:00:49 13° 41° (NE) 02:03:14 437.095 MHz 1200 baud AX-25 AFSK
AO-40 21 Sep 02:07:02 07:53:54 43° 183° (S) 15:40:54 Beacon 2401.320
PCSat 21 Sep 02:24:11 02:28:15 21° 48° (NE) 02:32:18 145.825 MHz
HO-68 21 Sep 02:49:02 02:55:58 58° 69° (ENE) 03:02:56 435.675 MHz FM
KITSAT 1 21 Sep 02:51:01 02:58:39 44° 309° (NW) 03:06:19 435.175 FM
STRAND 1 21 Sep 03:26:42 03:29:54 17° 297° (WNW) 03:33:06 ?
FUNcube-1 21 Sep 03:32:51 03:35:30 16° 64° (ENE) 03:38:11 145.950 - 145.970 MHz USB
Oscar 11 21 Sep 03:38:09 03:42:16 42° 72° (ENE) 03:46:25 145.825 FM, Beacon 2401.500 USB
Sapphire 21 Sep 03:39:44 03:45:11 74° 61° (ENE) 03:50:36 437.095 MHz 1200 baud AX-25 AFSK
UKube-1 21 Sep 03:55:51 04:00:11 82° 257° (WSW) 04:04:32 145.840 MHz, 145.915 MHz
PCSat 21 Sep 04:06:44 04:12:05 61° 246° (WSW) 04:17:24 145.825 MHz
SO-50 21 Sep 04:27:23 04:31:50 79° 120° (ESE) 04:36:25 436.795 FM
HO-68 21 Sep 04:38:20 04:44:01 25° 266° (W) 04:49:44 435.675 MHz FM
KITSAT 1 21 Sep 04:52:57 04:56:31 13° 335° (NNW) 05:00:06 435.175 FM
FUNcube-1 21 Sep 05:07:11 05:11:26 48° 261° (W) 05:15:49 145.950 - 145.970 MHz USB
Oscar 11 21 Sep 05:15:58 05:18:38 16° 268° (W) 05:21:19 145.825 FM, Beacon 2401.500 USB
Sapphire 21 Sep 05:25:17 05:27:55 14° 257° (WSW) 05:30:32 437.095 MHz 1200 baud AX-25 AFSK
UOSAT-12 21 Sep 05:58:14 06:02:43 55° 117° (ESE) 06:07:18 437.025 FM, 437.400 FM
SO-50 21 Sep 06:10:28 06:12:59 15° 319° (NW) 06:15:33 436.795 FM
Saudisat 1A 21 Sep 07:08:55 07:12:19 21° 46° (NE) 07:15:42 436.775 MHz
Oscar 16 21 Sep 07:36:58 07:40:27 18° 92° (E) 07:43:54 437.025 USB, Beacon 2401.1428
UOSAT-12 21 Sep 07:39:47 07:43:12 20° 315° (NW) 07:46:40 437.025 FM, 437.400 FM
PANSAT 21 Sep 07:54:00 07:56:04 14° 171° (S) 07:58:08 not established
Oscar 10/S400 21 Sep 07:59:29 09:09:42 38° 231° (SW) 14:00:40 145.825 - 145.975 CW/USB, Beacon 145.810 USB
JAS-1B 21 Sep 08:12:34 08:16:38 20° 93° (E) 08:20:42 435.800 - 435.900 CW/SSB
ITAMSAT 1 21 Sep 08:22:58 08:26:47 20° 94° (E) 08:30:36 435.822 SSB
ISS 21 Sep 08:25:23 08:28:41 69° 139° (SE) 08:32:00 145.800 FM
Uribyol 2 21 Sep 08:26:33 08:30:43 24° 95° (E) 08:34:51 436.500 FM
Oscar 19 21 Sep 08:35:51 08:41:00 66° 102° (ESE) 08:46:06 437.125 CW, 437.150 USB
RS-15 21 Sep 08:41:03 08:48:14 20° 100° (E) 08:55:17 29.354 - 29.394 USB, Beacon 29.352 USB
Saudisat 1A 21 Sep 08:47:54 08:52:05 43° 244° (WSW) 08:56:15 436.775 MHz
KITSAT 1 21 Sep 08:50:13 08:56:03 21° 37° (NE) 09:01:51 435.175 FM
TMSAT-1 21 Sep 08:56:17 08:59:09 15° 91° (E) 09:02:01 436.925 FM
AO-27 21 Sep 08:57:29 09:02:28 45° 99° (E) 09:07:27 436.795 MHz FM
Oscar 16 21 Sep 09:15:04 09:20:04 51° 288° (WNW) 09:25:02 437.025 USB, Beacon 2401.1428
AO-Echo 21 Sep 09:16:14 09:21:08 82° 103° (ESE) 09:26:09 ?
PANSAT 21 Sep 09:33:11 09:35:34 16° 184° (S) 09:37:57 not established
Gurwin Techsat 1B 21 Sep 09:58:06 10:03:26 80° 103° (ESE) 10:08:44 435.225 FM
ITAMSAT 1 21 Sep 10:01:30 10:06:29 46° 289° (WNW) 10:11:26 435.822 SSB
JAS-1B 21 Sep 10:02:12 10:07:40 47° 290° (WNW) 10:13:08 435.800 - 435.900 CW/SSB
ISS 21 Sep 10:03:10 10:05:40 19° 337° (NNW) 10:08:11 145.800 FM
Uribyol 2 21 Sep 10:05:26 10:10:17 40° 290° (WNW) 10:15:08 436.500 FM
Oscar 19 21 Sep 10:16:52 10:19:45 15° 298° (WNW) 10:22:38 437.125 CW, 437.150 USB
Uosat F 21 Sep 10:28:52 10:32:17 18° 93° (E) 10:35:41 435.120 FM
TMSAT-1 21 Sep 10:34:15 10:39:30 65° 286° (WNW) 10:44:44 436.925 FM
AO-27 21 Sep 10:37:43 10:41:40 22° 295° (WNW) 10:45:36 436.795 MHz FM
OPAL 21 Sep 10:38:43 10:43:47 57° 70° (ENE) 10:48:54 ?
KITSAT 1 21 Sep 10:44:42 10:52:49 79° 60° (ENE) 11:00:52 435.175 FM
RS-15 21 Sep 10:47:52 10:58:58 89° 120° (ESE) 11:09:57 29.354 - 29.394 USB, Beacon 29.352 USB
AO-Echo 21 Sep 10:57:46 10:59:15 11° 299° (WNW) 11:00:45 ?
AO-7 21 Sep 11:23:43 11:31:58 66° 104° (ESE) 11:40:11 29.400 - 29.500 MHz
Gurwin Techsat 1B 21 Sep 11:40:16 11:42:41 13° 300° (WNW) 11:45:06 435.225 FM
Uosat F 21 Sep 12:06:28 12:11:18 49° 289° (WNW) 12:16:07 435.120 FM
Hamsat 21 Sep 12:12:42 12:16:00 22° 94° (E) 12:19:15 145.90 MHz
OPAL 21 Sep 12:19:45 12:22:59 17° 266° (W) 12:26:16 ?
JAS-2 21 Sep 12:33:47 12:39:47 50° 100° (E) 12:46:31 435.800 - 435.900 CW/SSB, 435.910 FM
KITSAT 1 21 Sep 12:41:43 12:47:17 21° 257° (WSW) 12:52:52 435.175 FM
SO-50 21 Sep 12:59:53 13:04:37 54° 55° (NE) 13:09:22 436.795 FM
STRAND 1 21 Sep 13:01:02 13:06:05 77° 75° (ENE) 13:11:12 ?
RS-15 21 Sep 13:03:36 13:12:51 30° 325° (NW) 13:22:08 29.354 - 29.394 USB, Beacon 29.352 USB
AO-7 21 Sep 13:17:26 13:24:08 29° 303° (WNW) 13:30:50 29.400 - 29.500 MHz
ISS 21 Sep 13:19:18 13:21:18 15° 18° (NNE) 13:23:17 145.800 FM
Hamsat 21 Sep 13:48:17 13:51:57 29° 290° (WNW) 13:55:34 145.90 MHz
MaSat-1 21 Sep 14:03:44 14:08:34 52° 110° (ESE) 14:13:22 437.345 MHz
SO-67 21 Sep 14:10:03 14:13:31 72° 101° (E) 14:16:56 435.3500 MHz FM
JAS-2 21 Sep 14:19:38 14:24:37 27° 293° (WNW) 14:30:05 435.800 - 435.900 CW/SSB, 435.910 FM
UOSAT-12 21 Sep 14:28:57 14:33:20 36° 51° (NE) 14:37:39 437.025 FM, 437.400 FM
SO-50 21 Sep 14:41:34 14:44:46 18° 251° (WSW) 14:47:59 436.795 FM
STRAND 1 21 Sep 14:44:19 14:45:49 11° 270° (W) 14:47:20 ?
ISS 21 Sep 14:55:13 14:58:32 64° 36° (NE) 15:01:50 145.800 FM
RS-15 21 Sep 15:23:50 15:30:25 17° 1° (N) 15:37:04 29.354 - 29.394 USB, Beacon 29.352 USB
MaSat-1 21 Sep 15:41:49 15:45:34 21° 306° (NW) 15:49:14 437.345 MHz
UKube-1 21 Sep 15:46:08 15:49:09 18° 94° (E) 15:52:09 145.840 MHz, 145.915 MHz
HO-68 21 Sep 16:05:08 16:12:17 66° 103° (ESE) 16:19:25 435.675 MHz FM
UOSAT-12 21 Sep 16:09:27 16:13:18 25° 248° (WSW) 16:17:05 437.025 FM, 437.400 FM
ISS 21 Sep 16:33:19 16:34:51 13° 231° (SW) 16:36:23 145.800 FM
FUNcube-1 21 Sep 16:57:26 17:01:42 36° 97° (E) 17:05:52 145.950 - 145.970 MHz USB
Oscar 11 21 Sep 17:02:38 17:07:00 80° 284° (WNW) 17:11:18 145.825 FM, Beacon 2401.500 USB
PCSat 21 Sep 17:05:44 17:09:35 20° 106° (ESE) 17:13:27 145.825 MHz
UKube-1 21 Sep 17:21:26 17:25:27 37° 289° (WNW) 17:29:28 145.840 MHz, 145.915 MHz
RS-15 21 Sep 17:38:25 17:47:55 31° 36° (NE) 17:57:39 29.354 - 29.394 USB, Beacon 29.352 USB
HO-68 21 Sep 17:53:55 17:59:23 24° 301° (WNW) 18:04:51 435.675 MHz FM
Oscar 19 21 Sep 18:17:09 18:18:15 11° 59° (ENE) 18:19:21 437.125 CW, 437.150 USB
Sapphire 21 Sep 18:20:15 18:25:39 86° 117° (ESE) 18:31:06 437.095 MHz 1200 baud AX-25 AFSK
FUNcube-1 21 Sep 18:34:19 18:37:50 22° 293° (WNW) 18:41:18 145.950 - 145.970 MHz USB
Oscar 10/S400 21 Sep 18:37:33 18:44:15 11° 157° (SSE) 18:49:44 145.825 - 145.975 CW/USB, Beacon 145.810 USB
PCSat 21 Sep 18:47:17 18:52:33 53° 302° (WNW) 18:57:52 145.825 MHz
Oscar 16 21 Sep 18:52:47 18:56:56 25° 66° (ENE) 19:01:06 437.025 USB, Beacon 2401.1428
JAS-1B 21 Sep 18:55:57 19:02:03 24° 63° (ENE) 19:07:27 435.800 - 435.900 CW/SSB
ITAMSAT 1 21 Sep 19:39:56 19:44:17 28° 67° (ENE) 19:48:40 435.822 SSB
Gurwin Techsat 1B 21 Sep 19:41:26 19:44:11 14° 61° (ENE) 19:46:56 435.225 FM
Uribyol 2 21 Sep 19:43:24 19:47:56 32° 68° (ENE) 19:52:31 436.500 FM
RS-15 21 Sep 19:50:33 20:01:44 87° 241° (WSW) 20:13:24 29.354 - 29.394 USB, Beacon 29.352 USB
Oscar 19 21 Sep 19:51:33 19:56:45 85° 76° (ENE) 20:01:59 437.125 CW, 437.150 USB
Sapphire 21 Sep 20:06:34 20:09:48 16° 316° (NW) 20:13:03 437.095 MHz 1200 baud AX-25 AFSK
AO-27 21 Sep 20:14:35 20:19:40 61° 73° (ENE) 20:24:47 436.795 MHz FM
TMSAT-1 21 Sep 20:15:45 20:19:43 22° 65° (ENE) 20:23:41 436.925 FM
AO-Echo 21 Sep 20:28:25 20:33:10 86° 257° (WSW) 20:37:53 ?
Oscar 16 21 Sep 20:31:14 20:36:03 39° 262° (W) 20:40:55 437.025 USB, Beacon 2401.1428
AO-7 21 Sep 20:33:01 20:38:00 18° 51° (NE) 20:42:59 29.400 - 29.500 MHz
JAS-1B 21 Sep 20:43:35 20:52:13 71° 257° (WSW) 20:59:26 435.800 - 435.900 CW/SSB
Gurwin Techsat 1B 21 Sep 21:18:12 21:23:29 74° 258° (WSW) 21:28:49 435.225 FM
ITAMSAT 1 21 Sep 21:19:01 21:23:39 33° 263° (W) 21:28:19 435.822 SSB
Uribyol 2 21 Sep 21:22:57 21:27:23 29° 264° (W) 21:31:51 436.500 FM
Oscar 19 21 Sep 21:36:13 21:36:42 10° 271° (W) 21:37:12 437.125 CW, 437.150 USB
Uosat F 21 Sep 21:41:10 21:45:04 24° 66° (ENE) 21:48:59 435.120 FM
TMSAT-1 21 Sep 21:54:15 21:59:18 46° 261° (W) 22:04:23 436.925 FM
AO-27 21 Sep 21:56:43 21:59:35 15° 269° (W) 22:02:28 436.795 MHz FM
RS-15 21 Sep 22:05:14 22:12:32 20° 260° (W) 22:20:03 29.354 - 29.394 USB, Beacon 29.352 USB
AO-7 21 Sep 22:21:12 22:29:30 79° 70° (ENE) 22:37:49 29.400 - 29.500 MHz
JAS-1B 21 Sep 22:41:28 22:43:26 11° 271° (W) 22:45:21 435.800 - 435.900 CW/SSB
JAS-2 21 Sep 22:48:37 22:51:30 15° 62° (ENE) 22:54:23 435.800 - 435.900 CW/SSB, 435.910 FM
OPAL 21 Sep 22:51:15 22:54:21 16° 94° (E) 22:57:24 ?
Saudisat 1A 21 Sep 22:52:55 22:57:14 61° 118° (ESE) 23:01:35 436.775 MHz
Hamsat 21 Sep 23:05:53 23:08:26 15° 66° (ENE) 23:10:58 145.90 MHz
Uosat F 21 Sep 23:18:58 23:23:36 38° 262° (W) 23:28:17 435.120 FM
MaSat-1 21 Sep 23:58:04 00:01:48 81° 65° (ENE) 00:04:56 437.345 MHz
AO-7 22 Sep 00:17:15 00:23:02 21° 267° (W) 00:28:52 29.400 - 29.500 MHz
OPAL 22 Sep 00:28:31 00:33:35 58° 290° (WNW) 00:38:33 ?
JAS-2 22 Sep 00:30:54 00:36:06 61° 259° (W) 00:41:14 435.800 - 435.900 CW/SSB, 435.910 FM
Saudisat 1A 22 Sep 00:34:21 00:37:12 17° 316° (NW) 00:40:04 436.775 MHz
Hamsat 22 Sep 00:39:47 00:43:59 47° 261° (W) 00:48:12 145.90 MHz
SO-67 22 Sep 00:42:39 00:45:11 19° 70° (ENE) 00:47:43 435.3500 MHz FM
KITSAT 1 22 Sep 01:11:15 01:19:11 64° 114° (ESE) 01:27:10 435.175 FM
STRAND 1 22 Sep 01:13:10 01:17:34 28° 96° (E) 01:21:56 ?
